Regional Weather Roundup
Issued by NWS

Home | Current Version | Previous Version | Graphics & Text | Print | Product List | Glossary On
Versions: 1 2 3 4 5 6 7 8 9 10 11 12 13 14 15 16 17 18 19 20 21 22 23 24 25 26 27 28 29 30 31 32 33 34 35 36 37 38 39 40 41 42 43 44 45 46 47 48 49 50
000
ASUS43 KIND 180409
RWRIN

WEATHER ROUNDUP FOR INDIANA
NATIONAL WEATHER SERVICE INDIANAPOLIS IN
1200 AM EDT FRI AUG 18 2017

NOTE: "FAIR" INDICATES FEW OR NO CLOUDS BELOW 12,000 FEET WITH NO
SIGNIFICANT WEATHER AND/OR OBSTRUCTIONS TO VISIBILITY.

* - STATION DOES NOT REPORT WEATHER SUCH AS PRECIPITATION OR FOG.

+ - STATION NOT QUALITY CONTROLLED BY THE NATIONAL WEATHER SERVICE.
    USE DATA WITH CAUTION...ESPECIALLY DEWPOINT AND RELATIVE
    HUMIDITY OBSERVATIONS.

INZ001>003-010>013-019-020-180500-
NORTHWEST INDIANA

CITY           SKY/WX    TMP DP  RH WIND       PRES   REMARKS
GARY /AIRPORT/ CLOUDY    77  61  58 W12G20    29.80R
KNOX *+        MOCLDY    72  66  83 SW10      29.80S
LA PORTE +     CLEAR     72  67  85 SW9       29.80S
MICHIGAN CITY+ PTCLDY    72  64  78 SW9       29.79S
MONTICELLO +   CLEAR     71  67  87 SW8       29.82S
RENSSELAER +   MOCLDY    72  63  73 SW9       29.83R
VALPARAISO     CLEAR     74  68  81 SW8       29.80S

$$

LMZ046-743>745-180500-
SOUTHERN LAKE MICHIGAN

STATION/POSITION TIME  TEMP    WIND        PRES    WAVE
                       AIR SEA DIR/SP/G            HT
                 (UTC) (F)     (DEG/KT/KT) (MB)    (FT)
BURNS HARBOR     0340   77     270/ 22/ 28 1008.8S
MICHIGAN CITY    0340   76     240/ 21/ 24   N/A
5NW MICH CITY    0400   75 74  290/ 19/ 27   N/A     4

$$

INZ004-005-014>016-021>024-180500-
NORTH CENTRAL INDIANA

CITY           SKY/WX    TMP DP  RH WIND       PRES   REMARKS
GOSHEN         PTCLDY    71  65  81 SW8       29.79F
LOGANSPORT +   CLEAR     68  64  88 SW8       29.84R
PERU/GRISSOM   CLEAR     69  69  99 SW8       29.82F
ROCHESTER +    CLEAR     73  68  83 SW7       29.82S
SOUTH BEND     LGT RAIN  72  71  97 SW13      29.78F
WARSAW +       CLEAR     72  66  83 SW5       29.81S

$$

INZ006>009-017-018-025>027-180500-
NORTHEAST INDIANA

CITY           SKY/WX    TMP DP  RH WIND       PRES   REMARKS
AUBURN +       PTCLDY    72  64  78 SW3       29.82F
FORT WAYNE     MOCLDY    72  66  81 W8        29.82S
HUNTINGTON +   CLEAR     74  67  81 SW6       29.82S
KENDALLVILLE + CLEAR     71  66  86 SW8       29.81F

$$

INZ028-029-035-036-043>045-051>053-180500-
WEST CENTRAL INDIANA

CITY           SKY/WX    TMP DP  RH WIND       PRES   REMARKS
GREENCASTLE +  CLEAR     70  68  94 CALM      29.88R
LAFAYETTE      CLEAR     69  67  93 W6        29.83S
TERRE HAUTE    PTCLDY    71  68  90 SW3       29.87R

$$

INZ030>032-037>040-046>048-054>057-064-065-180500-
CENTRAL INDIANA

CITY           SKY/WX    TMP DP  RH WIND       PRES   REMARKS
CP ATTERBURY + CLEAR     70  68  94 SW5       29.88R
FRANKFORT +    MOCLDY    71  68  90 W5        29.87S
GREENWOOD *+   PTCLDY    73  67  80 SW5       29.87S
INDIANAPOLIS   PTCLDY    74  69  85 SW9       29.85S
-EAGLE CREEK   PTCLDY    76  68  76 VRB5      29.86R
KOKOMO +       PTCLDY    70  67  90 SW6       29.84F
MARION +       CLEAR     70  68  94 SW6       29.85S
MT COMFORT *+  CLEAR     72  68  88 SW5       29.87R
SHELBYVILLE    CLEAR     73  67  81 S6        29.86S
ZIONSVILLE +   PTCLDY    71  69  92 W6        29.87S

$$

INZ033-034-041-042-049-050-058-059-180500-
EAST CENTRAL INDIANA

CITY           SKY/WX    TMP DP  RH WIND       PRES   REMARKS
MUNCIE         PTCLDY    76  68  76 SW6       29.85S
RICHMOND +     PTCLDY    70  68  94 SW6       29.89S

$$

INZ060-061-067>069-081>083-085>088-180500-
SOUTHWEST INDIANA

CITY           SKY/WX    TMP DP  RH WIND       PRES   REMARKS
EVANSVILLE     MOCLDY    77  71  82 SW8       29.89S
HUNTINGBURG +  PTCLDY    75  72  90 SW7       29.90R
WASHINGTON +   CLEAR     74  72  93 MISG      29.88R

$$

INZ062-063-066-070>080-084-089>092-180500-
SOUTH CENTRAL AND SOUTHEAST INDIANA

CITY           SKY/WX    TMP DP  RH WIND       PRES   REMARKS
BEDFORD +      CLEAR     75  70  83 SW3       29.88S
BLOOMINGTON    CLEAR     70  65  84 CALM      29.88S
MADISON *+     CLOUDY    73  72  94 S6        29.91S
NORTH VERNON + PTCLDY    73  72  94 SW7       29.89R
SEYMOUR +      MOCLDY    75  73  94 S3        29.88S

$$





USA.gov is the U.S. government's official web portal to all federal, state and local government web resources and services.